{"data":{"norad_id":67818,"epoch":"2026-09-19T22:33:15.021216Z","epoch_age_seconds":114881,"freshness":"FRESH","line1":"1 67818U 26032X   26262.93975719  .00017010  00000+0  52786-3 0  9990","line2":"2 67818  97.2855  89.4154 0001314  54.8590 305.2776 15.33455590 34736","mean_motion":15.3345559,"eccentricity":0.0001314,"inclination_deg":97.2855,"raan_deg":89.4154,"arg_perigee_deg":54.859,"mean_anomaly_deg":305.2776,"bstar":0.00052786,"rev_number":3473,"period_min":93.905556143299,"perigee_km":464.61241083541,"apogee_km":466.41092170491,"semimajor_km":6843.6486662702,"source":"CELESTRAK","updated_at":"2026-09-20T09:00:43.666272Z"}}